Change the Weather History Date:

Sunday, February 23, 2014

  Actual Average Record
Temperature  
Mean Temperature 74 °F 65 °F  
Max Temperature 84 °F 75 °F 89 °F (2008)
Min Temperature 63 °F 55 °F 30 °F (1978)
Degree Days  
Heating Degree Days 0 3  
Month to date heating degree days 34 83  
Since 1 July heating degree days 235 370  
Cooling Degree Days 9 3  
Month to date cooling degree days 115 61  
Year to date cooling degree days 183 122  
Growing Degree Days 23 (Base 50)    
Moisture  
Dew Point 67 °F    
Average Humidity 83    
Maximum Humidity 100    
Minimum Humidity 65    
Precipitation  
Precipitation 0.01 in 0.10 in 2.65 in (1966)
Month to date precipitation 1.92 2.13  
Year to date precipitation 6.41 4.63  
Sea Level Pressure  
Sea Level Pressure 30.06 in    
Wind  
Wind Speed 6 mph (WSW)    
Max Wind Speed 16 mph    
Max Gust Speed 21 mph    
Visibility 4 miles    
Events Fog , Rain    
T = Trace of Precipitation, MM = Missing Value Source: NWS Daily Summary

Daily Weather History Graph

Daily Weather History Graph

Search for Another Location

Airport or City:

Trip Planner

Search our weather history database for the weather conditions in past years. The results will help you decide how hot, cold, wet, or windy it might be!

Date:

Astronomy

Feb. 23, 2014 Rise Set
Actual Time 6:51 AM EST 6:18 PM EST
Civil Twilight 6:28 AM EST 6:42 PM EST
Nautical Twilight 6:01 AM EST 7:09 PM EST
Astronomical Twilight 5:33 AM EST 7:36 PM EST
Moon 1:33 AM EST (2/23) 12:34 PM EST (2/23)
Length of Visible Light 12h 13m
Length of Day
11h 26m
Last Quarter, 39% of the Moon is Illuminated
Feb 23
Last Quarter
Mar 1
New
Mar 8
First Quarter
Mar 16
Full
Mar 23
Last Quarter

Hourly Weather History & Observations

Time (EST) Temp. Heat Index Dew Point Humidity Pressure Visibility Wind Dir Wind Speed Gust Speed Precip Events Conditions
12:00 AM 68.0 °F - 66.9 °F 96% 30.09 in 0.5 mi NW 3.5 mph - N/A Fog Fog
12:16 AM 68.0 °F - 66.9 °F 96% 30.09 in 1.2 mi Calm Calm - N/A   Scattered Clouds
12:31 AM 68.0 °F - 68.0 °F 100% 30.08 in 0.8 mi Calm Calm - N/A   Mist
12:46 AM 69.1 °F - 68.0 °F 96% 30.08 in 0.2 mi Calm Calm - N/A Fog Fog
12:50 AM 69.8 °F - 68.0 °F 94% 30.08 in 0.5 mi Calm Calm - N/A Fog Fog
12:53 AM 69.1 °F - 68.0 °F 96% 30.07 in 0.5 mi Calm Calm - N/A Fog Fog
1:11 AM 66.0 °F - 64.9 °F 96% 30.08 in 0.2 mi Calm Calm - N/A Fog Fog
1:53 AM 64.9 °F - 64.9 °F 100% 30.06 in 0.2 mi Calm Calm - N/A Fog Fog
2:33 AM 64.0 °F - 64.0 °F 100% 30.05 in 0.2 mi Calm Calm - N/A Fog Fog
2:53 AM 64.0 °F - 63.0 °F 96% 30.05 in 0.2 mi NW 3.5 mph - N/A Fog Fog
3:34 AM 64.0 °F - 64.0 °F 100% 30.05 in 0.5 mi Calm Calm - N/A Fog Fog
3:53 AM 64.9 °F - 64.0 °F 97% 30.04 in 0.2 mi Calm Calm - N/A Fog Fog
4:06 AM 64.9 °F - 64.9 °F 100% 30.05 in 0.5 mi Calm Calm - N/A Fog Fog
4:44 AM 64.0 °F - 64.0 °F 100% 30.05 in 0.2 mi WNW 4.6 mph - N/A Fog Fog
4:53 AM 64.0 °F - 64.0 °F 100% 30.05 in 0.5 mi NNW 4.6 mph - N/A Fog Fog
5:04 AM 64.0 °F - 64.0 °F 100% 30.06 in 0.5 mi Calm Calm - N/A Fog Fog
5:28 AM 64.0 °F - 63.0 °F 96% 30.06 in 0.2 mi Calm Calm - N/A Fog Fog
5:53 AM 64.0 °F - 63.0 °F 96% 30.06 in 0.2 mi Calm Calm - N/A Fog Fog
6:22 AM 64.0 °F - 64.0 °F 100% 30.08 in 0.5 mi Calm Calm - N/A Fog Fog
6:53 AM 64.0 °F - 64.0 °F 100% 30.08 in 0.2 mi Calm Calm - N/A Fog Fog
7:39 AM 64.9 °F - 64.9 °F 100% 30.08 in 0.5 mi Calm Calm - N/A Fog Fog
7:50 AM 66.2 °F - 66.2 °F 100% 30.08 in 2.0 mi Calm Calm - N/A   Overcast
7:53 AM 66.0 °F - 66.0 °F 100% 30.08 in 3.0 mi Calm Calm - N/A   Mostly Cloudy
8:07 AM 66.9 °F - 66.0 °F 97% 30.09 in 7.0 mi Calm Calm - N/A   Scattered Clouds
8:24 AM 70.0 °F - 68.0 °F 93% 30.09 in 2.0 mi Calm Calm - N/A   Mist
8:26 AM 70.0 °F - 68.0 °F 93% 30.09 in 6.0 mi Calm Calm - N/A   Scattered Clouds
8:53 AM 72.0 °F - 70.0 °F 93% 30.10 in 6.0 mi Calm Calm - N/A   Scattered Clouds
9:53 AM 75.9 °F - 71.1 °F 85% 30.10 in 10.0 mi SSW 6.9 mph - N/A   Scattered Clouds
10:53 AM 79.0 °F - 71.1 °F 77% 30.09 in 10.0 mi SSW 11.5 mph - N/A   Scattered Clouds
11:53 AM 82.0 °F 86.7 °F 72.0 °F 71% 30.08 in 10.0 mi Variable 5.8 mph - N/A   Scattered Clouds
12:53 PM 82.9 °F 86.5 °F 69.1 °F 63% 30.06 in 10.0 mi SSW 6.9 mph - N/A   Scattered Clouds
1:53 PM 82.9 °F 88.0 °F 72.0 °F 69% 30.03 in 10.0 mi SE 11.5 mph - N/A   Mostly Cloudy
2:53 PM 81.0 °F 85.2 °F 72.0 °F 74% 30.01 in 10.0 mi SSE 13.8 mph - N/A   Partly Cloudy
3:53 PM 82.9 °F 86.5 °F 69.1 °F 63% 29.99 in 10.0 mi SSE 9.2 mph - N/A   Clear
4:53 PM 79.0 °F - 70.0 °F 74% 30.00 in 10.0 mi SE 12.7 mph - N/A   Clear
5:53 PM 79.0 °F - 71.1 °F 77% 30.00 in 10.0 mi SE 8.1 mph - N/A   Mostly Cloudy
6:53 PM 75.9 °F - 72.0 °F 87% 30.00 in 10.0 mi ESE 6.9 mph - N/A   Scattered Clouds
7:53 PM 75.9 °F - 71.1 °F 85% 29.99 in 10.0 mi South 4.6 mph - N/A   Clear
8:53 PM 75.0 °F - 69.1 °F 82% 30.04 in 10.0 mi NNW 13.8 mph - N/A   Mostly Cloudy
9:26 PM 72.0 °F - 69.1 °F 91% 30.04 in 10.0 mi North 13.8 mph - N/A   Overcast
9:53 PM 72.0 °F - 69.1 °F 91% 30.04 in 9.0 mi North 8.1 mph - 0.01 in Rain Light Rain
10:53 PM 70.0 °F - 68.0 °F 93% 30.04 in 10.0 mi NNW 5.8 mph - 0.00 in   Clear
11:53 PM 69.1 °F - 66.9 °F 93% 30.04 in 10.0 mi NW 5.8 mph - N/A   Clear